Page, AZ

3:32 AM MDT on August 25, 2016 (GMT -0600)
Page Municipal

Weather History for KPGA - December, 2012

Change the Weather History Date:

Wednesday, December 12, 2012

  Actual Average Record
Temperature  
Mean Temperature 38 °F -  
Max Temperature 46 °F 44 °F 65 °F (1958)
Min Temperature 30 °F 25 °F 1 °F (1961)
Degree Days  
Heating Degree Days 27    
Moisture  
Dew Point 15 °F    
Average Humidity 38    
Maximum Humidity 56    
Minimum Humidity 15    
Precipitation  
Precipitation 0.00 in - - ()
Sea Level Pressure  
Sea Level Pressure 29.94 in    
Wind  
Wind Speed 2 mph (WSW)    
Max Wind Speed 6 mph    
Max Gust Speed -    
Visibility 10 miles    
Events      
Averages and records for this station are not official NWS values.
T = Trace of Precipitation, MM = Missing Value Source: NWS Daily Summary

Daily Weather History Graph

Daily Weather History Graph

Search for Another Location

Airport or City:

Trip Planner

Search our weather history database for the weather conditions in past years. The results will help you decide how hot, cold, wet, or windy it might be!

Date:

Astronomy

Dec. 12, 2012 Rise Set
Actual Time 7:29 AM MST 5:09 PM MST
Civil Twilight 7:00 AM MST 5:38 PM MST
Nautical Twilight 6:28 AM MST 6:11 PM MST
Astronomical Twilight 5:56 AM MST 6:42 PM MST
Moon 6:38 AM MST (12/12) 4:50 PM MST (12/12)
Length of Visible Light 10h 37m
Length of Day
9h 39m
Waning Crescent, 0% of the Moon is Illuminated
Dec 12
Waning Crescent
Dec 13
New
Dec 19
First Quarter
Dec 28
Full
Jan 4
Last Quarter

Hourly Weather History & Observations

Time (MST) Temp. Windchill Dew Point Humidity Pressure Visibility Wind Dir Wind Speed Gust Speed Precip Events Conditions
12:53 AM 34.0 °F - 15.1 °F 46% 29.99 in 10.0 mi Calm Calm - N/A   Clear
1:53 AM 35.1 °F 30.1 °F 14.0 °F 42% 29.96 in 10.0 mi South 5.8 mph - N/A   Clear
2:53 AM 34.0 °F 29.8 °F 14.0 °F 44% 29.96 in 10.0 mi SW 4.6 mph - N/A   Clear
3:53 AM 32.0 °F 28.7 °F 15.1 °F 50% 29.96 in 10.0 mi South 3.5 mph - N/A   Clear
4:53 AM 30.0 °F - 14.0 °F 51% 29.96 in 10.0 mi Calm Calm - N/A   Clear
5:53 AM 30.0 °F - 15.1 °F 54% 29.97 in 9.0 mi Calm Calm - N/A   Clear
6:53 AM 30.9 °F - 16.0 °F 54% 29.97 in 9.0 mi Calm Calm - N/A   Clear
7:53 AM 30.0 °F - 16.0 °F 56% 29.99 in 7.0 mi Calm Calm - N/A   Clear
8:53 AM 33.1 °F 28.7 °F 16.0 °F 50% 29.99 in 10.0 mi South 4.6 mph - N/A   Clear
9:53 AM 35.1 °F 32.2 °F 15.1 °F 44% 30.00 in 10.0 mi Variable 3.5 mph - N/A   Clear
10:53 AM 37.9 °F 35.5 °F 17.1 °F 43% 29.99 in - North 3.5 mph - N/A   Unknown
11:53 AM 43.0 °F 40.3 °F 17.1 °F 35% 29.97 in 10.0 mi North 4.6 mph - N/A   Clear
12:53 PM 45.0 °F 41.8 °F 16.0 °F 31% 29.93 in 10.0 mi Variable 5.8 mph - N/A   Clear
1:53 PM 46.9 °F - 15.1 °F 28% 29.90 in 10.0 mi NE 5.8 mph - N/A   Clear
2:53 PM 46.0 °F 44.8 °F 14.0 °F 28% 29.89 in 10.0 mi North 3.5 mph - N/A   Clear
3:53 PM 46.9 °F - 14.0 °F 27% 29.88 in 10.0 mi Calm Calm - N/A   Clear
4:53 PM 44.6 °F - 15.8 °F 31% 29.90 in 10.0 mi Calm Calm - N/A   Clear
5:53 PM 43.0 °F 41.3 °F 15.1 °F 32% 29.91 in 9.0 mi WSW 3.5 mph - N/A   Clear
6:53 PM 41.0 °F 39.0 °F 15.1 °F 35% 29.91 in 8.0 mi WSW 3.5 mph - N/A   Clear
7:53 PM 42.1 °F - 15.1 °F 34% 29.92 in 9.0 mi Calm Calm - N/A   Clear
8:53 PM 43.0 °F - 17.1 °F 35% 29.92 in 10.0 mi Calm Calm - N/A   Clear
9:53 PM 41.0 °F - 16.0 °F 36% 29.93 in 10.0 mi Calm Calm - N/A   Clear
10:53 PM 45.0 °F 43.5 °F 12.9 °F 27% 29.91 in 10.0 mi Variable 3.5 mph - N/A   Clear
11:53 PM 41.0 °F 39.0 °F 12.9 °F 32% 29.91 in 6.0 mi WSW 3.5 mph - N/A   Haze